User: anonymous   Login
Location: Unspecified
(0.0000°N, 0.0000°E)
Time: 20:32:22
(UTC+00:00)
Language:

UWE-4 - Orbit

View from above orbital plane
View from above orbital plane
View from above satellite
View from above satellite

Ground track
Ground track

The orbit data is extracted from the following two-line orbital elements,

1 43880U 18111E   23276.48236532  .00010832  00000-0  79046-3 0  9991
2 43880  97.6228 180.0225 0018563 160.5620 199.6318 15.03729955258637
Epoch (UTC): 03 October 2023 11:34:36
Eccentricity: 0.0018563
inclination: 97.6228°
perigee height: 542 km
apogee height: 568 km
right ascension of ascending node: 180.0225°
argument of perigee: 160.5620°
revolutions per day: 15.03729955
mean anomaly at epoch: 199.6318°
orbit number at epoch: 25863

The dashed part of the orbit path shows where the satellite is in the earth's shadow,  

DLR